Location: Les Chemineaux
(47.3024°N, 1.5104°E)
Time: 21:40:15
(UTC+00:00)

Cosmos 1536 - Pass Details

Date: 19 May 2025
Orbit: 494 x 518 km, 82.5° (Epoch: 18 June)

Event Time Altitude Azimuth Distance (km) Brightness Sun altitude
Rises 21:31:06 0° 356° (N) 2,641 7.4 -15.8°
Reaches altitude 10° 21:33:20 10° 4° (N) 1,745 6.2 -16.0°
Maximum altitude 21:36:58 41° 76° (ENE) 748 3.3 -16.3°
Enters shadow 21:38:06 32° 118° (ESE) 891 3.4 -16.4°
